User: anonymous   Login
Location: Plum
(40.5000°N, 79.7500°W)
Time: 09:29:43
(UTC-05:00)
Language:

Cosmos 1825 - Orbit

View from above orbital plane
View from above orbital plane
View from above satellite
View from above satellite

Ground track
Ground track

The orbit data is extracted from the following two-line orbital elements,

1 17566U 87024A   16038.84444058  .00002569  00000-0  12747-3 0  9997
2 17566  82.5031  60.7980 0005464 124.4650 235.7100 15.17283033578693
Epoch (UTC): 07 February 2016 20:15:59
Eccentricity: 0.0005464
inclination: 82.5031°
perigee height: 510 km
apogee height: 518 km
right ascension of ascending node: 60.7980°
argument of perigee: 124.4650°
revolutions per day: 15.17283033
mean anomaly at epoch: 235.7100°
orbit number at epoch: 57869

The dashed part of the orbit path shows where the satellite is in the earth's shadow,  

DLR